Regional Weather Roundup
Issued by NWS

Home | Current Version | Previous Version | Text Only | Print | Product List | Glossary Off
Versions: 1 2 3 4 5 6 7 8 9 10 11 12 13 14 15 16 17 18 19 20 21 22 23 24 25 26 27 28 29 30 31 32 33 34 35 36 37 38 39 40 41 42 43 44 45 46 47 48 49 50

548
ASUS45 KBOU 251910
RWRCO

WEATHER ROUNDUP FOR COLORADO
NATIONAL WEATHER SERVICE DENVER/BOULDER CO
1200 PM MST SUN FEB 25 2018

NOTE: "FAIR" INDICATES FEW OR NO CLOUDS BELOW 12000 FEET WITH NO
SIGNIFICANT WEATHER AND/OR OBSTRUCTIONS TO VISIBILITY.

COZ001>005-013-030-031-252000-
...NORTHWEST COLORADO...

CITY           SKY/WX    TMP DP  RH WIND       PRES   REMARKS
CRAIG          FAIR      24   5  44 W14       30.08R WCI  12
HAYDEN         FAIR      24   8  50 W17       30.06  WCI  11
MEEKER         FAIR      26   6  42 W13       30.09R WCI  15
RANGELY        FAIR      30   8  40 W14G23    30.14S WCI  19
RABBIT EARS PA CLOUDY   N/A N/A N/A W15G26    29.84S
STEAMBOAT SPGS PTSUNNY   22   6  49 SW14      30.04R WCI  10
WALDEN         FAIR      19   0  42 SW20G26   29.93R WCI   4
$$

COZ006>008-011-252000-
...WEST CENTRAL VALLEYS...

CITY           SKY/WX    TMP DP  RH WIND       PRES   REMARKS
GRAND JUNCTION FAIR      35  14  42 NW8       30.14F WCI  29
MONTROSE       PTSUNNY   32  14  47 NE7       30.15S WCI  26
EAGLE          FAIR      27   8  44 SW21G28   30.08R WCI  13
RIFLE          FAIR      29   9  43 W18       30.13R WCI  16
DELTA          FAIR      38  11  33 S8        30.15S
NUCLA          FAIR      32  10  40 NE3       30.18S
$$

COZ017>023-064>068-252000-
...SOUTHWEST COLORADO...

CITY           SKY/WX    TMP DP  RH WIND       PRES   REMARKS
DURANGO        FAIR      32   6  33 W17       30.07R WCI  21
CORTEZ         FAIR      34   5  29 NW7G17    30.14S WCI  28
PAGOSA SPRINGS FAIR      29  -2  26 CALM      30.04R
TELLURIDE      FAIR      18   4  53 S5        30.07S WCI  11
WOLF CREEK PAS PTSUNNY    5   5 100 SW7       29.97R WCI  -7
$$

COZ009-010-012-014-032>034-037-058>063-252000-
...CENTRAL COLORADO...

CITY           SKY/WX    TMP DP  RH WIND       PRES   REMARKS
ASPEN          CLOUDY    22   7  52 N7        30.02R WCI  13
BUENA VISTA    FAIR      28  -9  19 W20G26    29.92F WCI  15
COPPER MTN     LGT SNOW   5  -2  72 W30G43    29.81R VSB 3/4 WCI -19
BERTHOUD PASS  SNOW      -4 -13  65 NW41      29.69R VSB<1/4 WCI -35
COTTONWOOD PAS FAIR      21  -6  30 W25G44    29.87S WCI   4
GUNNISON       FAIR      23   6  48 W16G23    30.04R WCI  10
GRANBY         LGT SNOW  17   7  64 W9        29.97S WCI   5
KREMMLING      PTSUNNY   32  10  40 SW16G24   30.00S WCI  21
LEADVILLE      CLOUDY    11  -3  53 NW18G35   29.90S BLWGSNOWWCI  -7
MONARCH PASS   PTSUNNY    3  -2  78 W59G70    29.87S WCI -28
SALIDA         FAIR      30  -7  20 W20G37    30.02F WCI  17
SUNLIGHT       PTSUNNY    9   3  78 SW8G17    29.97  WCI  -4
WILKERSON PASS FAIR      10  -9  40 W12G30    29.82R WCI  -4
$$

COZ069>075-252000-
...SAN LUIS VALLEY/SANGRE DE CRISTO MOUNTAINS...

CITY           SKY/WX    TMP DP  RH WIND       PRES   REMARKS
ALAMOSA        CLOUDY    31  -9  17 NW13G30   29.98S WCI  21
DEL NORTE      FAIR      29  -4  24 W14G23    29.99S WCI  18
LA VETA PASS   PTSUNNY   19  -4  35 SW12G18   29.99S WCI   7
SAGUACHE       PTSUNNY   27   0  31 NW23G31   29.99R WCI  12
$$

COZ035-036-038>040-252000-
...NORTHERN COLORADO FRONT RANGE...

CITY           SKY/WX    TMP DP  RH WIND       PRES   REMARKS
DENVER INTL AP FAIR      37   1  22 W21G32    29.89F
AURORA         MOSUNNY   36  -1  20 SW14G25   29.90F
FRONT RANGE AP MOSUNNY   39   0  19 W14G32    29.91F
ERIE MUNI ARPT FAIR      36  -2  20 SE5       29.94F
BOULDER MUN AP FAIR      37  -2  18 CALM      29.87F
CENTENNIAL     FAIR      33  -1  23 W7        29.89F WCI  27
BROOMFIELD     MOSUNNY   32   7  34 W25G36    29.89F WCI  19
FORT COLLINS   FAIR      33   8  35 E16       29.88F WCI  23
LONGMONT       FAIR      42  -1  16 W5        29.89F
$$

COZ041-046-047-076>085-087-088-252000-
...PIKES PEAK/PALMER DIVIDE AND SOUTHERN FOOTHILLS...

CITY           SKY/WX    TMP DP  RH WIND       PRES   REMARKS
COLO. SPRINGS  FAIR      36  -6  16 NW20G29   29.92F
A. F. ACADEMY  FAIR      34  -9  15 NW20G28   29.89F WCI  22
SCHRIEVER AFB  NOT AVBL
CHEYENNE MTN   FAIR      30  -9  18 N13G26    29.83F WCI  20
ELLICOTT         N/A    N/A N/A N/A NW15G24   29.91S
FALCON         FAIR      33  -9  16 W8G24     29.91F WCI  26
FORT CARSON    MOSUNNY   38  -8  13 SW15G26   29.92
LIMON          FAIR      38  -9  13 NW16G28   29.92F
MONUMENT HILL  FAIR      30  -8  19 W13G22    29.90F WCI  20
CANON CITY     PTSUNNY   41   0  17 SW16      29.94F
WALSENBURG     NOT AVBL
TRINIDAD       FAIR      41 -10  11 NW21G36   29.96S
$$

COZ042>045-048>051-090-091-252000-
...NORTHEAST COLORADO...

CITY           SKY/WX    TMP DP  RH WIND       PRES   REMARKS
GREELEY ARPT   FAIR      37   7  28 SE12      29.91F
AKRON          FAIR      39   4  23 NW23G33   29.91F
BURLINGTON     FAIR      42   5  21 NW16G22   29.94F
WRAY           FAIR      45   5  19 W18G28    29.95S
YUMA           NOT AVBL
STERLING       FAIR      41   7  24 NW32G44   29.90F
HOLYOKE        FAIR      43   7  22 NW17G28   29.93S
FORT MORGAN    FAIR      40  -3  16 W17G26    29.93F
$$

COZ086-089-092>099-252000-
...SOUTHEAST COLORADO...

CITY           SKY/WX    TMP DP  RH WIND       PRES   REMARKS
PUEBLO         FAIR      44  -2  14 W20G28    29.95F
LA JUNTA       FAIR      44   6  21 W14       29.97F
LAMAR          FAIR      44   7  21 NW12      29.97F
SPRINGFIELD      N/A     44   4  19 NW20G29   29.96F
$$




USA.gov is the U.S. government's official web portal to all federal, state and local government web resources and services.